Погода в Нижних Аремзянах

Россия / Тюменская область     58°29′47″N   68°37′07″E
темп.,
°C
ветер,
м/с
пор.,
м/с
влажн.,
%
обл.,
%
осадки,
мм/ч
давл.,
гПа
погр.,
м
14 апреля, ср
ср1423:00+5зюз4127869 0.0 1032206
02:00+5юз51480100 0.0 1029297
05:00+5юз51488100 0.0 1027339
08:00+8зюз51386100 0.0 1026540
11:00+12зсз597011 0.0 1026832
14:00+15зсз576286 0.0 10251306
17:00+13св2275100 0.0 1025317
20:00+9юв339169 0.0 102543
15 апреля, чт
чт1523:00+9юз34885 0.0 102363
02:00+7зюз39925 0.0 1023165
05:00+6зюз389427 0.0 1022153
08:00+10зюз412815 0.0 1021351
11:00+15зюз611585 0.0 1019844
14:00+18зюз711475 0.0 10171358
17:00+18зюз611545 0.0 10151559
20:00+14зюз411685 0.0 1014271
16 апреля, пт
пт1623:00+12зюз513685 0.0 1012358
02:00+9ссз6984100 0.0 1012574
05:00+5с5891100 1.2 1015727
08:00+5ссз5876100 1.1 10171079
11:00+6с6757100 1.3 10201708
14:00+6с574696 0.3 10221790
17:00+4ссв664221 0.3 10241746
20:000ссв3753100 0.0 1025278
17 апреля, сб
сб1723:00−1всв3660100 0.0 1025382
02:00−2юв256164 0.0 1024304
05:00−3ю25665 0.0 1022224
08:00+1ююз475410 0.0 1019565
11:00+3зюз5730100 0.0 10201295
14:00+2з51091100 1.1 1013887
17:00+1ссз8114771 2.4 10152055
20:00−4ссз612525 0.0 10181506
18 апреля, вс
вс1823:00−6сз512524 0.0 10181387
02:00−6сз510460 0.0 10171095
05:00−7сз6104610 0.0 1018964
08:00−6ссз710435 0.0 10181054
11:00−3ссз7103999 0.0 10181561
14:00−2ссз81037100 0.0 10192041
17:00−1ссв5739100 0.0 10262034
20:00−4с7135389 0.0 10241399